Flag for Germany Weather past 2 weeks in Tuttlingen, Baden-Württemberg, Germany

Now
62 °F

Overcast.


Feels Like: 62 °F
Forecast: 55 / 71 °F
Wind: 3 mph from West

Location: Konstanz

Current Time: Jul 30, 2014 at 3:16:57 AM

Latest Report: Jul 30, 2014 at 3:00 AM


Visibility: 41 mi

Pressure: 29.81 "Hg

Humidity: 86%

Dew point: 58 °F

Location of TuttlingenLocation

Historic Weather in Tuttlingen — Graph

°F

Tuttlingen temperature yesterday

Maximum temperature yesterday: 68 °F (at 4:00 PM)
Minimum temperature yesterday: 59 °F (at 8:00 AM)
Average temperature yesterday: 63 °F

Past Weeks' High & Low Weather Summary

 TemperatureHumidityPressure
High91 °F (Jul 19, 6:00 PM)99% (Jul 23, 4:00 AM)30.19 "Hg (Jul 23, 4:00 AM)
Low59 °F (Jul 25, 6:00 AM)14% (Jul 18, 5:00 PM)29.70 "Hg (Jul 28, 7:00 PM)
Average69 °F71%29.95 "Hg
* Reported Jul 15 2:00 AM — Jul 30 2:00 AM, Tuttlingen, Weather by CustomWeather, © 2014

Note: Actual official high and low records may vary slightly from our data, if they occured in-between our weather recording intervals... More about our weather records

Advertising

Tuttlingen weather history for previous 24 hours

 ConditionsComfort  
Time TempWeatherWind HumidityBarometerVisibility
2:00 AM
Jul 30
62 °FOvercast.3 mph85%29.80 "Hg43 mi
1:00 AM63 °FOvercast.3 mph84%29.80 "Hg43 mi
12:00 AM64 °FOvercast.2 mph82%29.81 "Hg43 mi
11:00 PM
Jul 29
65 °FOvercast.3 mph78%29.80 "Hg43 mi
10:00 PM65 °FOvercast.2 mph80%29.80 "Hg43 mi
9:00 PM66 °FOvercast.2 mph78%29.78 "Hg37 mi
8:00 PM67 °FOvercast.2 mph77%29.77 "Hg37 mi
7:00 PM67 °FOvercast.2 mph73%29.76 "Hg37 mi
6:00 PM68 °FOvercast.2 mph70%29.76 "Hg37 mi
5:00 PM68 °FOvercast.2 mph68%29.76 "Hg43 mi
4:00 PM68 °FOvercast.3 mph69%29.76 "Hg43 mi
3:00 PM68 °FOvercast.1 mph66%29.77 "Hg43 mi
2:00 PM67 °FOvercast.2 mph68%29.78 "Hg43 mi
1:00 PM65 °FOvercast.2 mph73%29.79 "Hg34 mi
12:00 PM62 °FOvercast.3 mph85%29.80 "Hg22 mi
11:00 AM61 °FLight rain. Low clouds.2 mph87%29.80 "Hg11 mi
10:00 AM60 °FLow clouds.2 mph89%29.81 "Hg14 mi
9:00 AM59 °FLight rain. Low clouds.2 mph92%29.81 "Hg14 mi
8:00 AM59 °FLight rain. Low clouds.2 mph93%29.80 "Hg9 mi
7:00 AM59 °FLight rain. Overcast.2 mph91%29.80 "Hg12 mi
6:00 AM59 °FLight rain. Overcast.2 mph95%29.80 "Hg14 mi
5:00 AM60 °FLight freezing rain. Overcast.2 mph89%29.81 "Hg16 mi
4:00 AM60 °FOvercast.2 mph90%29.82 "Hg43 mi
3:00 AM60 °FOvercast.3 mph88%29.83 "Hg43 mi
Weather by CustomWeather, © 2014

See weather overviewHow to use our weather pages